Location: Newark
(40.7360°N, 74.1730°W)
Time: 09:44:41
(UTC-05:00)

Envisat - Visible Passes

Search period start: 30 January 2023 00:00
Search period end: 09 February 2023 00:00
Orbit: 763 x 765 km, 98.2° (Epoch: 30 January)

Date Brightness Start Highest point End Pass type
(mag) Time Alt. Az. Time Alt. Az. Time Alt. Az.
31 Jan 5.5 04:18:46 10° N 04:18:51 10° N 04:18:51 10° N visible
02 Feb 5.3 04:43:56 10° N 04:44:22 12° N 04:44:22 12° N visible
03 Feb 5.5 04:06:40 10° NNE 04:07:02 12° NNE 04:07:02 12° NNE visible
04 Feb 5.1 05:09:23 10° NNW 05:09:53 12° NNW 05:09:53 12° NNW visible
05 Feb 5.2 04:31:44 10° N 04:32:33 15° N 04:32:33 15° N visible
06 Feb 5.5 03:54:36 10° NNE 03:55:13 13° NNE 03:55:13 13° NNE visible
06 Feb 5.1 05:35:19 10° NNW 05:35:25 10° NNW 05:35:25 10° NNW visible
07 Feb 4.9 04:57:02 10° N 04:58:05 15° NNW 04:58:05 15° NNW visible
08 Feb 5.0 04:19:34 10° N 04:20:46 17° N 04:20:46 17° N visible
